Location: Lake_James_State_Park
(35.7270°N, 81.9020°W)
Time: 03:58:45
(UTC-04:00)

Daily predictions for brighter satellites

Satellite Brightness Start Highest point End
(mag) Time Altitude Azimuth Time Altitude Azimuth Time Altitude Azimuth
Cosmos 1953 4.2 00:04:27 10° NNW 00:06:37 29° NW 00:06:37 29° NW
Nadezhda 4 Rocket 4.1 00:08:39 65° WSW 00:09:08 68° W 00:15:28 10° N
COSMOS 2406 3.4 00:09:27 67° WNW 00:09:27 67° WNW 00:15:07 10° NNE
Cosmos 2208 Rocket 4.5 00:09:19 10° NNW 00:13:24 56° N 00:13:24 56° N
USA 238 DEB 4.1 00:13:43 39° WSW 00:16:23 62° NW 00:23:24 10° NNE
USA 238 4.1 00:13:55 40° WSW 00:16:29 63° NW 00:23:30 10° NNE
Cosmos 1655 Rocket 4.4 00:22:31 54° ENE 00:22:31 54° ENE 00:27:52 10° NNE
Terra 3.5 00:22:47 26° WNW 00:22:47 26° WNW 00:25:56 10° NW
CZ-4C R/B 3.5 00:26:51 31° NE 00:26:51 31° NE 00:29:59 10° NE
Cosmos 2082 Rocket 4.4 00:32:38 13° ENE 00:32:38 13° ENE 00:33:40 10° ENE
H-2A R/B 4.0 00:38:18 18° W 00:38:18 18° W 00:41:06 10° NW
Cosmos 2221 4.4 00:42:47 10° N 00:44:51 28° N 00:44:51 28° N
Cosmos 1943 Rocket 3.6 00:42:44 10° NW 00:46:20 29° WNW 00:46:20 29° WNW
Meteor 1-24 Rocket 4.2 00:48:55 60° NNE 00:48:55 60° NNE 00:53:47 10° NNE
Cosmos 2026 Rocket 4.1 00:49:48 68° NNW 00:49:48 68° NNW 00:55:06 10° N
NOSS 3-2 (C) 3.8 00:51:59 58° NE 00:51:59 58° NE 00:57:12 10° NE
Cosmos 2344 3.6 01:17:28 65° ESE 01:17:28 65° ESE 01:25:25 10° NE
CZ-2C R/B 3.8 01:12:28 10° NNE 01:16:07 36° NE 01:16:07 36° NE
Cosmos 2369 4.3 01:28:37 10° NNW 01:33:02 53° N 01:33:02 53° N
NOSS 3-2 (A) 4.3 01:34:42 40° WNW 01:35:23 41° NW 01:41:36 10° NNE
Cosmos 1553 Rocket 4.4 01:31:33 10° NNW 01:36:55 56° WNW 01:36:55 56° WNW
Cosmos 1818 4.5 01:36:07 10° NNW 01:39:56 46° NNW 01:39:56 46° NNW
Cosmos 1763 Rocket 4.4 01:51:01 10° NNW 01:54:40 45° NNW 01:54:40 45° NNW
Cosmos 2315 Rocket 4.2 01:50:18 10° N 01:56:08 63° ENE 01:56:08 63° ENE
Cosmos 1980 Rocket 3.9 01:52:44 10° N 01:57:20 25° ENE 01:58:50 22° E
Cosmos 2266 Rocket 4.3 02:02:30 59° NW 02:02:30 59° NW 02:08:17 10° N
USA 215 3.9 02:00:57 10° NE 02:05:58 41° E 02:05:58 41° E
Lacrosse 5 3.7 02:08:27 10° NNW 02:12:47 28° NE 02:15:00 20° ENE
CZ-4C R/B 4.0 02:12:00 21° WNW 02:13:19 22° NW 02:17:54 10° N
Cosmos 2082 Rocket 2.8 02:14:28 49° NW 02:14:28 49° NW 02:19:11 10° NNE
Cosmos 1697 Rocket 3.1 02:12:31 10° NNW 02:17:38 59° NE 02:17:38 59° NE
MOS 1-B Rocket 4.5 02:20:11 68° WSW 02:20:20 68° WSW 02:27:18 10° NNW
Cosmos 1833 Rocket 3.2 02:23:37 54° NNW 02:23:37 54° NNW 02:28:23 10° NNE
CZ-2C R/B 3.7 02:30:16 53° NW 02:30:16 53° NW 02:34:42 10° NNW
ATLAS 5 CENTAUR R/B 4.4 02:32:26 11° E 02:32:26 11° E 02:33:03 10° E
BREEZE-M TANK 3.9 02:20:16 10° WSW 02:32:33 54° NNW 02:35:58 10° NE
CENTAUR R/B 2.4 02:37:39 75° NW 02:37:39 75° NW 02:44:20 10° NNE
Cosmos 968 Rocket 4.3 02:39:19 42° ENE 02:39:19 42° ENE 02:43:21 10° NNE
Meteor 2-11 Rocket 4.4 02:35:10 10° N 02:41:06 83° NNW 02:41:06 83° NNW
Cosmos 1726 4.5 02:38:01 10° N 02:39:41 23° NNE 02:39:41 23° NNE
Aureole 1 Rocket 3.9 02:46:02 10° NNW 02:49:58 60° NW 02:49:58 60° NW
Meteor 1-27 4.2 02:46:34 10° N 02:52:26 81° E 02:52:26 81° E
SL-08 R/B 4.3 02:53:14 80° WNW 02:53:14 80° WNW 02:59:20 10° N
IRS-P3 4.3 02:49:52 10° NNE 02:54:57 64° E 02:54:57 64° E
CZ-2C R/B 4.4 02:53:38 10° NNW 02:57:38 21° WNW 02:57:38 21° WNW
SL-16 R/B 3.9 02:54:08 10° N 02:59:05 30° ENE 03:03:59 10° ESE
Cosmos 1626 4.4 02:59:56 21° ENE 02:59:56 21° ENE 03:02:06 10° NE
Cosmos 2242 Rocket 4.3 03:02:45 10° N 03:06:04 50° N 03:06:04 50° N
Cosmos 1703 4.5 03:11:01 41° NNE 03:11:01 41° NNE 03:13:42 10° N
OAO 3 Rocket 4.2 03:13:20 36° E 03:13:20 36° E 03:16:09 10° E
Cosmos 2322 Rocket 3.3 03:06:17 10° N 03:11:34 40° ENE 03:15:23 18° SE
Cosmos 1633 Rocket 4.0 03:13:20 41° NNW 03:13:20 41° NNW 03:16:31 10° N
Cosmos 1777 Rocket 4.1 03:14:31 63° ESE 03:14:39 64° ESE 03:19:53 10° NNE
Cosmos 332 Rocket 4.4 03:17:00 10° NNW 03:20:35 47° NW 03:20:35 47° NW
Cosmos 1271 Rocket 3.8 03:19:18 10° N 03:22:18 41° NE 03:22:18 41° NE
CBERS-1 3.8 03:20:27 10° NNE 03:25:35 86° ESE 03:25:50 81° SSE
SL-08 R/B 3.2 03:27:42 86° SE 03:27:48 87° ENE 03:32:43 10° NNW
Cosmos 1470 Rocket 3.8 03:31:57 65° NNW 03:31:57 65° NNW 03:35:53 10° N
Lacrosse 5 rocket 3.2 03:28:51 10° NNW 03:32:52 34° NE 03:37:01 10° ESE
ARIANE 5 R/B 3.5 03:29:13 10° NNE 03:33:56 38° E 03:35:28 31° SE
Cosmos 1933 Rocket 3.8 03:36:33 61° NW 03:36:33 61° NW 03:40:26 10° N
H-2A R/B 4.2 02:02:23 10° W 03:36:50 61° SSW 03:43:12 10° ESE
ADEOS 3.5 03:32:33 10° NNE 03:37:48 80° ESE 03:38:41 62° S
Cosmos 1980 Rocket 2.8 03:36:11 10° NW 03:40:33 38° W 03:40:33 38° W
Cosmos 2360 Rocket 4.2 03:37:28 10° N 03:42:08 26° ENE 03:46:47 10° ESE
CZ-2D R/B 3.5 03:37:57 10° NE 03:42:39 32° E 03:45:19 21° SE
ERS-2 3.8 03:40:45 10° N 03:42:57 25° NW 03:42:57 25° NW
SL-16 R/B 3.6 03:39:13 10° SE 03:45:03 42° ENE 03:50:53 10° N
USA 215 3.9 03:43:55 10° NNE 03:50:07 47° NW 03:53:18 27° W
NPP 4.1 03:45:11 10° N 03:50:17 45° WNW 03:51:03 42° W
USA 161 4.2 03:54:45 13° N 03:54:45 13° N 03:55:08 10° N
Lacrosse 5 2.8 03:51:04 10° NW 03:54:01 31° WNW 03:54:01 31° WNW
Meteor 1-4 Rocket 3.5 03:55:54 10° NNW 03:58:38 40° NW 03:58:38 40° NW
Cosmos 1709 Rocket 4.1 03:59:11 43° SW 04:01:07 60° W 04:07:20 10° N
Meteor 2-10 4.3 03:58:42 10° NNW 04:03:45 48° W 04:04:30 45° WSW
Cosmos 2112 Rocket 4.3 04:04:43 10° N 04:09:53 64° ENE 04:15:01 10° SSE
Okean O Rocket 3.5 04:07:46 10° NE 04:11:25 25° E 04:14:57 10° SSE
Cosmos 371 Rocket 4.4 04:09:00 10° NW 04:12:20 27° W 04:12:20 27° W
SEDSat Delta rocket 4.1 04:10:49 31° WSW 04:14:01 59° S 04:20:32 10° ESE
Cosmos 1862 Rocket 4.1 04:10:02 10° NNW 04:14:11 38° W 04:14:12 38° W
Cosmos 1455 3.0 04:11:02 10° NNW 04:13:56 35° WNW 04:13:56 35° WNW
ATLAS 5 CENTAUR R/B 1.9 04:13:59 44° SW 04:15:26 69° WNW 04:20:35 10° NNE
Cosmos 1346 3.6 04:16:14 50° NW 04:16:14 50° NW 04:18:47 10° N
H-2A R/B 3.3 04:14:58 29° WSW 04:18:08 69° S 04:48:41 10° ESE
Cosmos 1833 4.2 04:22:23 34° SW 04:25:01 73° WNW 04:30:46 10° NNE
Cosmos 304 Rocket 3.7 04:22:36 10° NNW 04:27:27 84° WSW 04:32:03 11° SSE
Cosmos 2221 Rocket 3.5 04:27:28 10° NNW 04:31:58 72° W 04:34:36 24° S
OAO 1 4.5 04:30:23 30° WSW 04:33:09 72° SSE 04:38:39 10° E
Cosmos 1626 4.0 04:34:40 17° WNW 04:34:40 17° WNW 04:37:02 10° NNW
Resurs 1-4 Rocket 2.1 04:30:28 10° N 04:35:47 75° WNW 04:39:02 24° SSW
Cosmos 1869 Rocket 3.7 04:35:04 33° SW 04:36:47 58° W 04:41:08 10° N
UNKNOWN OBJECT B 2.7 04:34:58 10° NNE 04:38:48 89° WNW 04:40:49 28° SSW
Cosmos 2298 Rocket 4.0 04:35:53 25° SSW 04:39:02 85° WNW 04:44:25 10° NNE
SL-16 R/B 2.9 04:38:07 10° NW 04:43:09 33° WSW 04:45:43 23° SSW
ISS -2.1 04:41:42 10° NW 04:44:52 44° NE 04:47:59 10° ESE
CZ-2C R/B 4.2 04:43:42 10° SSE 04:48:06 62° ENE 04:52:35 10° N
SME Rocket 4.1 04:42:04 10° SSE 04:49:26 80° ENE 04:54:20 10° NNW
Meteor 2-3 Rocket 3.8 04:45:06 13° S 04:50:20 84° E 04:56:10 10° N
UNK 3.8 04:47:01 17° S 04:50:22 53° W 04:54:51 10° NNW
USA 229 DEB 3.7 04:46:06 21° SSW 04:51:05 85° WNW 04:58:05 10° NNE
USA 229 3.7 04:46:10 20° SSW 04:51:11 86° WNW 04:58:12 10° NNE
OAO 3 Rocket 3.0 04:51:09 15° W 04:54:57 76° S 04:59:40 10° ESE
Cosmos 2322 Rocket 3.3 04:50:57 10° NW 04:55:17 23° W 04:57:05 20° SW
Cosmos 1680 Rocket 4.1 04:52:36 10° NW 04:57:20 36° W 05:01:25 13° SSW
SL-24 DEB 4.2 04:52:57 10° N 04:57:37 87° W 05:02:13 10° S
EO 1 Del DPAF 4.4 04:59:05 22° WSW 05:00:02 25° W 05:03:17 10° NW
ASTRO F (AKARI) 4.2 04:57:11 10° S 05:00:29 71° WSW 05:03:42 10° NNW
ATLAS CENTAUR R/B 3.0 04:56:10 10° NNW 05:00:33 41° NE 05:04:36 10° SE
CZ-2D R/B 3.4 04:58:41 10° N 05:02:47 64° WNW 05:05:54 16° SSW
Cosmos 2219 Rocket 4.4 04:59:56 10° N 05:04:46 29° ENE 05:09:34 10° ESE
GOES 2 Rocket 4.3 05:03:19 17° SSW 05:05:26 24° S 05:08:50 10° ESE
Coronas F rocket 3.7 05:05:29 10° SSE 05:07:42 22° E 05:09:57 10° NE
GPS 2-05 Rocket1 2.7 05:06:56 15° W 05:09:34 89° NNW 05:13:01 10° E
CZ-4B R/B 3.3 05:05:45 10° NNE 05:09:48 67° E 05:14:03 10° S
Cosmos 1733 Rocket 3.1 05:05:36 10° S 05:09:54 82° E 05:14:17 10° N
PSLV R/B 3.9 05:06:53 10° N 05:10:48 66° WNW 05:14:31 12° SSW
Thor Agena Rocket 3.7 05:05:34 10° SSE 05:10:51 86° ENE 05:16:11 10° NNW
Lacrosse 5 rocket 2.4 05:08:13 10° WNW 05:12:05 29° WSW 05:16:01 10° S
IRS-1C Rocket 4.2 05:07:33 10° N 05:12:45 60° WNW 05:17:49 11° SSW
ARIANE 5 R/B 3.9 05:08:58 10° NNW 05:12:47 22° WNW 05:15:49 13° WSW
Cosmos 2154 Rocket 4.0 05:08:06 10° S 05:14:24 77° W 05:20:47 10° N
Nadezhda 3 Rocket 4.0 05:08:22 10° N 05:14:33 88° E 05:20:42 10° S
Cosmos 220 Rocket 4.0 05:12:48 10° SSW 05:17:01 79° ESE 05:21:19 10° NNE
Sich 1 Rocket 4.0 05:16:49 10° S 05:21:09 64° E 05:25:29 10° NNE
Centaur D-1AR AC-48 4.1 05:06:59 10° WSW 05:21:28 29° SSW 05:26:06 10° SE
CZ-2D R/B 3.2 05:18:13 10° NNW 05:22:34 27° WNW 05:26:39 11° WSW
Cosmos 389 Rocket 2.5 05:19:29 10° NNW 05:23:10 74° W 05:26:50 10° S
Cosmos 1898 Rocket 4.2 05:20:38 13° SW 05:24:50 37° WNW 05:29:38 10° N
Cosmos 1782 3.7 05:21:16 10° N 05:25:12 52° E 05:29:05 10° SSE
Cosmos 2227 Rocket 3.1 05:20:28 10° S 05:25:50 47° ESE 05:31:14 10° NNE
Cosmos 2360 Rocket 2.7 05:21:01 10° NW 05:26:11 39° WSW 05:31:21 10° S
SL-16 R/B 3.5 05:23:33 10° SSW 05:28:44 27° W 05:33:57 10° NW
Cosmos 1356 Rocket 4.1 05:26:13 10° S 05:30:15 54° E 05:34:13 10° NNE
Cosmos 1937 Rocket 4.0 05:27:47 10° SW 05:32:51 45° WNW 05:37:57 10° N
CZ-4B R/B 3.4 05:28:03 10° N 05:33:24 57° WNW 05:38:49 10° SSW
Intercosmos 24 Rocket 4.3 05:29:54 10° S 05:34:06 89° W 05:37:39 10° N
Okean 1-7 4.5 05:33:22 10° NW 05:36:30 20° W 05:39:38 10° SW
Cosmos 2219 4.2 05:32:57 10° SW 05:38:01 32° WNW 05:43:10 10° N
Cosmos 2333 4.3 05:32:24 10° NNW 05:38:05 89° WSW 05:43:47 10° SSE
Iridium 4 Rocket 3.5 05:34:22 10° N 05:38:36 64° E 05:42:42 10° S
Cosmos 1606 4.0 05:39:49 10° N 05:43:29 45° E 05:47:06 10° SSE
Meteor 2-10 Rocket 3.5 05:38:35 10° NNW 05:43:36 66° W 05:48:45 10° S
Cosmos 1340 Rocket 2.8 05:39:40 10° SSW 05:43:41 67° W 05:47:42 10° N
Cosmos 1908 Rocket 3.6 05:39:58 10° S 05:44:23 87° E 05:48:48 10° N
